Location: Cogollal
(10.0582°N, 67.8466°W)
Time: 21:14:02
(UTC+00:00)

Cosmos 1048 Rocket - Pass Details

Date: 14 April 2024
Orbit: 742 x 788 km, 74.0° (Epoch: 18 May)

Event Time Altitude Azimuth Distance (km) Brightness Sun altitude
Exits shadow 08:39:59 51° 320° (NW) 984 4.3 -25.2°
Drops below altitude 10° 08:44:19 10° 2° (N) 2,329 6.7 -24.1°
Sets 08:46:44 0° 6° (N) 3,251 7.5 -23.6°
